• In Hungary
  • List of Countries
  • For 7 days
  • Water Temperature
  • Satellite Maps
  • Weather Map
  • News
  • Weather Widgets
  • user-avatar
    Login

    Hourly Weather Stanislavivka

    Today, 20 October, Friday

    Time Temperature Precipitation Wind Pressure Humidity
    00:00 +15°C° 0 mm 2 mps 744 mmHg 67%
    01:00 +14°C° 0 mm 2 mps 744 mmHg 69%
    02:00 +14°C° 0 mm 2 mps 744 mmHg 70%
    03:00 +14°C° 0 mm 2 mps 744 mmHg 74%
    04:00 +13°C° 0 mm 2 mps 744 mmHg 77%
    05:00 +13°C° 0 mm 2 mps 744 mmHg 80%
    06:00 +13°C° 0 mm 2 mps 744 mmHg 80%
    07:00 +13°C° 0 mm 2 mps 744 mmHg 80%
    08:00 +13°C° 0 mm 2 mps 745 mmHg 80%
    09:00 +14°C° 0 mm 3 mps 745 mmHg 74%
    10:00 +17°C° 0 mm 3 mps 745 mmHg 68%
    11:00 +18°C° 0 mm 3 mps 745 mmHg 62%
    12:00 +19°C° 0 mm 3 mps 745 mmHg 60%
    13:00 +19°C° 0 mm 3 mps 745 mmHg 58%
    14:00 +20°C° 0 mm 3 mps 745 mmHg 57%
    15:00 +18°C° 0 mm 3 mps 745 mmHg 61%
    16:00 +17°C° 0 mm 3 mps 745 mmHg 66%
    17:00 +16°C° 0 mm 3 mps 745 mmHg 71%
    18:00 +14°C° 0 mm 3 mps 745 mmHg 73%
    19:00 +13°C° 0 mm 3 mps 746 mmHg 76%
    20:00 +12°C° 0 mm 3 mps 746 mmHg 79%
    21:00 +12°C° 0 mm 3 mps 746 mmHg 80%
    22:00 +12°C° 0 mm 2 mps 746 mmHg 81%
    23:00 +12°C° 0 mm 2 mps 746 mmHg 82%

    Tomorrow, 21 October, Saturday

    Time Temperature Precipitation Wind Pressure Humidity
    00:00 +10°C° 0 mm 2 mps 746 mmHg 82%
    01:00 +10°C° 0 mm 2 mps 746 mmHg 83%
    02:00 +9°C° 0 mm 2 mps 747 mmHg 84%
    03:00 +9°C° 0 mm 2 mps 746 mmHg 84%
    04:00 +9°C° 0 mm 2 mps 746 mmHg 84%
    05:00 +8°C° 0 mm 2 mps 746 mmHg 84%
    06:00 +8°C° 0 mm 3 mps 746 mmHg 81%
    07:00 +9°C° 0 mm 3 mps 747 mmHg 78%
    08:00 +9°C° 0 mm 3 mps 747 mmHg 75%
    09:00 +10°C° 0 mm 3 mps 747 mmHg 69%
    10:00 +12°C° 0 mm 3 mps 747 mmHg 63%
    11:00 +13°C° 0 mm 3 mps 747 mmHg 57%
    12:00 +14°C° 0 mm 3 mps 747 mmHg 55%
    13:00 +15°C° 0 mm 2 mps 746 mmHg 53%
    14:00 +16°C° 0 mm 2 mps 746 mmHg 50%
    15:00 +15°C° 0 mm 2 mps 746 mmHg 52%
    16:00 +14°C° 0 mm 2 mps 745 mmHg 55%
    17:00 +13°C° 0 mm 2 mps 745 mmHg 57%
    18:00 +13°C° 0 mm 2 mps 745 mmHg 56%
    19:00 +11°C° 0 mm 3 mps 745 mmHg 54%
    20:00 +11°C° 0 mm 3 mps 745 mmHg 53%
    21:00 +10°C° 0 mm 3 mps 745 mmHg 52%
    22:00 +10°C° 0 mm 3 mps 745 mmHg 51%
    23:00 +9°C° 0 mm 3 mps 745 mmHg 49%

    Day after tomorrow, 22 October, Sunday

    Time Temperature Precipitation Wind Pressure Humidity
    00:00 +9°C° 0 mm 3 mps 745 mmHg 49%
    01:00 +9°C° 0 mm 3 mps 745 mmHg 49%
    02:00 +9°C° 0 mm 3 mps 745 mmHg 49%
    03:00 +8°C° 0 mm 3 mps 745 mmHg 49%
    04:00 +8°C° 0 mm 3 mps 745 mmHg 50%
    05:00 +8°C° 0 mm 3 mps 745 mmHg 50%
    06:00 +8°C° 0 mm 3 mps 745 mmHg 51%
    07:00 +8°C° 0 mm 3 mps 745 mmHg 52%
    08:00 +8°C° 0 mm 3 mps 746 mmHg 52%
    09:00 +9°C° 0 mm 3 mps 746 mmHg 50%
    10:00 +10°C° 0 mm 3 mps 746 mmHg 47%
    11:00 +11°C° 0 mm 3 mps 746 mmHg 45%
    12:00 +12°C° 0 mm 3 mps 746 mmHg 44%
    13:00 +12°C° 0 mm 3 mps 746 mmHg 43%
    14:00 +13°C° 0 mm 2 mps 746 mmHg 41%
    15:00 +12°C° 0 mm 3 mps 746 mmHg 43%
    16:00 +11°C° 0 mm 3 mps 746 mmHg 45%
    17:00 +11°C° 0 mm 3 mps 746 mmHg 47%
    18:00 +10°C° 0 mm 3 mps 746 mmHg 47%
    19:00 +10°C° 0 mm 3 mps 746 mmHg 48%
    20:00 +10°C° 0 mm 3 mps 746 mmHg 48%
    21:00 +9°C° 0 mm 3 mps 746 mmHg 48%
    22:00 +9°C° 0 mm 3 mps 747 mmHg 49%
    23:00 +9°C° 0 mm 3 mps 747 mmHg 49%

    23 October, Monday

    Time Temperature Precipitation Wind Pressure Humidity
    00:00 +8°C° 0 mm 3 mps 747 mmHg 49%
    01:00 +8°C° 0 mm 3 mps 747 mmHg 50%
    02:00 +8°C° 0 mm 3 mps 746 mmHg 50%
    03:00 +8°C° 0 mm 3 mps 746 mmHg 50%
    04:00 +7°C° 0 mm 3 mps 746 mmHg 51%
    05:00 +7°C° 0 mm 3 mps 746 mmHg 51%
    06:00 +7°C° 0 mm 3 mps 746 mmHg 51%
    07:00 +6°C° 0 mm 4 mps 746 mmHg 50%
    08:00 +7°C° 0 mm 4 mps 747 mmHg 49%
    09:00 +8°C° 0 mm 4 mps 747 mmHg 48%
    10:00 +8°C° 0 mm 4 mps 747 mmHg 46%
    11:00 +10°C° 0 mm 4 mps 747 mmHg 45%
    12:00 +11°C° 0 mm 4 mps 747 mmHg 44%
    13:00 +11°C° 0 mm 4 mps 746 mmHg 42%
    14:00 +12°C° 0 mm 4 mps 746 mmHg 41%
    15:00 +12°C° 0 mm 4 mps 746 mmHg 42%
    16:00 +11°C° 0 mm 3 mps 746 mmHg 43%
    17:00 +11°C° 0 mm 3 mps 746 mmHg 44%
    18:00 +10°C° 0 mm 4 mps 746 mmHg 43%
    19:00 +10°C° 0 mm 4 mps 747 mmHg 43%
    20:00 +8°C° 0 mm 4 mps 747 mmHg 43%
    21:00 +8°C° 0 mm 4 mps 747 mmHg 42%
    22:00 +7°C° 0 mm 4 mps 747 mmHg 42%
    23:00 +7°C° 0 mm 4 mps 747 mmHg 42%

    24 October, Tuesday

    Time Temperature Precipitation Wind Pressure Humidity
    00:00 +6°C° 0 mm 4 mps 747 mmHg 43%
    01:00 +5°C° 0 mm 4 mps 748 mmHg 45%
    02:00 +4°C° 0 mm 3 mps 748 mmHg 46%
    03:00 +4°C° 0 mm 3 mps 748 mmHg 48%
    04:00 +4°C° 0 mm 3 mps 748 mmHg 49%
    05:00 +3°C° 0 mm 3 mps 748 mmHg 51%
    06:00 +3°C° 0 mm 4 mps 749 mmHg 50%
    07:00 +4°C° 0 mm 4 mps 749 mmHg 49%
    08:00 +4°C° 0 mm 4 mps 749 mmHg 47%
    09:00 +5°C° 0 mm 4 mps 750 mmHg 43%
    10:00 +7°C° 0 mm 5 mps 750 mmHg 38%
    11:00 +8°C° 0 mm 5 mps 750 mmHg 33%
    12:00 +8°C° 0 mm 5 mps 750 mmHg 32%
    13:00 +9°C° 0 mm 5 mps 750 mmHg 31%
    14:00 +9°C° 0 mm 5 mps 750 mmHg 29%
    15:00 +8°C° 0 mm 5 mps 750 mmHg 32%
    16:00 +7°C° 0 mm 5 mps 750 mmHg 34%
    17:00 +6°C° 0 mm 4 mps 750 mmHg 37%
    18:00 +5°C° 0 mm 4 mps 751 mmHg 39%
    19:00 +5°C° 0 mm 4 mps 751 mmHg 41%
    20:00 +3°C° 0 mm 5 mps 751 mmHg 44%
    21:00 +3°C° 0 mm 5 mps 752 mmHg 45%
    22:00 +2°C° 0 mm 5 mps 752 mmHg 47%
    23:00 +2°C° 0 mm 5 mps 752 mmHg 48%

    25 October, Wednesday

    Time Temperature Precipitation Wind Pressure Humidity
    00:00 +2°C° 0 mm 5 mps 753 mmHg 48%
    01:00 +1°C° 0 mm 5 mps 753 mmHg 49%
    02:00 +1°C° 0 mm 5 mps 753 mmHg 50%
    03:00 0°C° 0 mm 5 mps 754 mmHg 51%
    04:00 0°C° 0 mm 5 mps 754 mmHg 52%
    05:00 0°C° 0 mm 5 mps 754 mmHg 53%
    06:00 -1°C° 0 mm 6 mps 754 mmHg 52%
    07:00 -1°C° 0 mm 6 mps 755 mmHg 52%
    08:00 -1°C° 0 mm 7 mps 755 mmHg 52%
    09:00 +2°C° 0 mm 7 mps 756 mmHg 48%
    10:00 +3°C° 0 mm 7 mps 756 mmHg 44%
    11:00 +4°C° 0 mm 7 mps 756 mmHg 41%
    12:00 +4°C° 0 mm 7 mps 756 mmHg 40%
    13:00 +5°C° 0 mm 7 mps 756 mmHg 39%
    14:00 +5°C° 0 mm 7 mps 756 mmHg 38%
    15:00 +4°C° 0 mm 6 mps 756 mmHg 40%
    16:00 +3°C° 0 mm 6 mps 757 mmHg 42%
    17:00 +2°C° 0 mm 5 mps 757 mmHg 44%
    18:00 +2°C° 0 mm 6 mps 757 mmHg 45%
    19:00 +2°C° 0 mm 6 mps 758 mmHg 47%
    20:00 +1°C° 0 mm 6 mps 758 mmHg 48%
    21:00 +1°C° 0 mm 6 mps 758 mmHg 49%
    22:00 0°C° 0 mm 5 mps 758 mmHg 51%
    23:00 0°C° 0 mm 5 mps 759 mmHg 53%
    Show more